[[{"header":{"parameterUnit":"m.s-1","parameterCategory":1,"la1":30.2991,"la2":30.254,"lo1":-89.0895,"lo2":-89.0444,"dy":0.0017,"dx":0.0017,"nx":28,"ny":28,"refTime":"2023-08-09T09:00:00:Z","depth":0,"parameterNumber":2,"parameterNumberName":"U-component_of_WINDS"},"data":[0,0,0,0,0,0,0,0,0,0,0,0,0,0,0,0,0,0,0,0,0,0,0,0,0,0,0,0,0,0,0,0,0,0,0,0,0,0,0,0,0,0,0,0,0,0,0,0,0,0,0,0,0,0,0,0,0,0,0.5025,0.5027,0,0.5158,0.516,0.5161,0.5177,0.5176,0.5175,0.5173,0.531,0.5315,0.532,0,0,0,0,0,0,0,0,0,0,0,0,0,0.4784,0.4788,0.5025,0.5027,0.5028,0.5158,0.516,0.5162,0.5177,0.5176,0.5174,0.5173,0.5309,0.5314,0.532,0,0,0,0,0,0,0,0,0,0,0,0,0,0.49,0.479,0.5025,0.5052,0.5056,0.5158,0.516,0.5162,0.5178,0.5176,0.5174,0.5172,0.5307,0.5314,0.5321,0.5405,0,0,0.5343,0.5347,0,0,0,0,0,0,0,0,0.4893,0.4909,0.5046,0.505,0.5055,0.5149,0.5125,0.5244,0.5178,0.5131,0.5173,0.5171,0.5258,0.5269,0.5299,0.5412,0.5418,0.5344,0.5348,0.5352,0.5354,0,0,0,0,0,0,0,0.4885,0.4903,0.5078,0.5048,0.5053,0.5057,0.5071,0.5148,0.5204,0.5135,0.5137,0.5152,0.526,0.5292,0.5302,0.542,0.5344,0.535,0.5355,0.5358,0.5607,0.5609,0,0,0,0,0,0,0.4872,0.4896,0.5074,0.5082,0.4967,0.5063,0.5079,0.5121,0.5204,0.5214,0.5154,0.5153,0.528,0.5294,0.5307,0.5411,0.5352,0.5358,0.5363,0.5605,0.5608,0.561,0,0,0,0,0,0,0.4867,0.4888,0.5068,0.499,0.5013,0.5069,0.5116,0.5124,0.5156,0.5217,0.5228,0.5176,0.5279,0.5297,0.538,0.5416,0.5362,0.5368,0.5602,0.5606,0.5609,0.5619,0,0,0,0,0,0,0.486,0.4886,0.4919,0.499,0.5017,0.514,0.5118,0.5128,0.5168,0.5168,0.5241,0.5251,0.5279,0.5369,0.5388,0.5425,0.5374,0.5599,0.5604,0.5608,0.5616,0.5622,0.5628,0,0,0,0,0,0.4851,0.4917,0.4921,0.4942,0.5059,0.5142,0.5157,0.5188,0.5171,0.5205,0.5244,0.5249,0.5408,0.5378,0.5399,0.5438,0.5597,0.5602,0.5607,0.5613,0.5621,0.5628,0,0,0,0,0,0,0.4849,0.4927,0.4932,0.5022,0.5075,0.5144,0.5188,0.5196,0.5255,0.5252,0.5288,0.5304,0.5386,0.542,0.5385,0.5523,0.5501,0.5511,0.5498,0.5507,0.5512,0.5503,0.538,0,0,0,0,0,0.4859,0.492,0.4984,0.5058,0.5084,0.5131,0.5168,0.5187,0.5244,0.5266,0.5312,0.5366,0.5429,0.5469,0.553,0.562,0.5636,0.5657,0.5663,0.5668,0.5676,0.5726,0.5736,0.5627,0.5627,0.5626,0,0,0.4881,0.493,0.4967,0.5059,0.5102,0.5164,0.515,0.5216,0.5262,0.5276,0.5358,0.5393,0.5456,0.5543,0.5584,0.5574,0.5709,0.5674,0.5678,0.5684,0.5732,0.5742,0.5751,0.563,0.5629,0.5629,0,0,0.4951,0.4995,0.5061,0.5104,0.517,0.52,0.5216,0.5283,0.5307,0.5389,0.5401,0.5456,0.5563,0.5607,0.5644,0.5728,0.5735,0.5747,0.5779,0.5827,0.5835,0.5843,0.5874,0.5884,0.5755,0.5755,0.5755,0,0.497,0.5064,0.5094,0.516,0.52,0.5214,0.5281,0.5321,0.5403,0.543,0.5418,0.5551,0.5595,0.5692,0.5712,0.5741,0.576,0.574,0.5832,0.584,0.5848,0.5877,0.5888,0.5756,0.5756,0.5755,0.5755,0,0.5083,0.5148,0.5193,0.5272,0.5316,0.5382,0.5422,0.5463,0.5477,0.5508,0.5592,0.5644,0.5715,0.5739,0.5754,0.5838,0.583,0.5824,0.5803,0.5859,0.5887,0.5898,0.5757,0.5757,0.5757,0.5756,0,0,0.5159,0.5252,0.5268,0.5303,0.5375,0.5425,0.5491,0.556,0.5595,0.565,0.5706,0.5795,0.5789,0.5831,0.585,0.5892,0.5955,0.5881,0.5883,0.5893,0.6051,0.6055,0.6068,0.5959,0.5961,0.5963,0.6046,0,0.5239,0.5357,0.5385,0.5486,0.5545,0.5559,0.5616,0.5666,0.5696,0.5751,0.5784,0.5847,0.5835,0.586,0.5901,0.5939,0.5988,0.5933,0.6012,0.6014,0.5997,0.6083,0.6089,0.6164,0.6057,0.6059,0.606,0,0.5348,0.5405,0.5512,0.5575,0.5601,0.5652,0.5717,0.5769,0.5825,0.5844,0.5889,0.5904,0.5972,0.5945,0.604,0.6002,0.6035,0.6058,0.6062,0.6072,0.6042,0.6096,0.6189,0.6201,0.6078,0.6076,0.6075,0,0.5393,0.5497,0.5574,0.5603,0.5678,0.5714,0.5747,0.5801,0.584,0.5896,0.5922,0.5985,0.6021,0.6069,0.61,0.6078,0.6192,0.6168,0.621,0.6209,0.6235,0.6233,0.6336,0.6254,0.6254,0.6254,0.6254,0,0.548,0.5545,0.5595,0.5642,0.5715,0.5746,0.5816,0.5849,0.5897,0.5951,0.5965,0.6015,0.6053,0.6108,0.6133,0.6207,0.6222,0.624,0.6246,0.6239,0.6237,0.6263,0.6259,0.6257,0.6256,0.6256,0.6255,0,0.5544,0.558,0.5665,0.5728,0.5745,0.5796,0.585,0.5896,0.5926,0.5994,0.6011,0.6058,0.6123,0.6159,0.6241,0.6257,0.634,0.6343,0.6321,0.6324,0.6364,0.636,0.6488,0.6506,0.6411,0.6412,0.6413,0,0.5598,0.5648,0.5716,0.5753,0.5786,0.5846,0.5885,0.5917,0.5957,0.6024,0.6062,0.6128,0.6183,0.6286,0.6327,0.6389,0.6394,0.6435,0.6404,0.6396,0.6396,0.6393,0.6398,0.6441,0.6442,0.6442,0.6443,0,0.5689,0.5704,0.5761,0.5824,0.5871,0.5922,0.5972,0.6001,0.604,0.6085,0.6152,0.6194,0.6277,0.6342,0.6407,0.644,0.6449,0.6452,0.6465,0.6459,0.6445,0.6454,0.6337,0.6449,0.6449,0.6448,0.6448,0.6447,0.5751,0.5795,0.585,0.5913,0.5953,0.6,0.6046,0.6081,0.6137,0.6207,0.6221,0.6291,0.6345,0.6433,0.6468,0.6523,0.6515,0.6534,0.6539,0.6543,0.6545,0.6435,0.6535,0.6534,0.6534,0.6534,0.6534,0,0.5844,0.5879,0.5936,0.6006,0.6054,0.6056,0.6111,0.6152,0.6214,0.6263,0.6315,0.6391,0.6454,0.6499,0.6563,0.6598,0.6603,0.6614,0.6612,0.662,0.6548,0.6531,0.6608,0.6608,0.6608,0.6608,0.6608,0.6608,0.5898,0.5974,0.5994,0.609,0.6125,0.6194,0.6225,0.6267,0.6307,0.6391,0.6442,0.6471,0.6518,0.6585,0.6642,0.6654,0.6677,0.6687,0.6699,0.6633,0.6625,0.6617,0.6601,0.6692,0.6692,0.6766,0.6767,0.6767]},{"header":{"parameterUnit":"m.s-1","parameterCategory":1,"la1":30.2991,"la2":30.254,"lo1":-89.0895,"lo2":-89.0444,"dy":0.0017,"dx":0.0017,"nx":28,"ny":28,"refTime":"2023-08-09T09:00:00:Z","depth":0,"parameterNumber":3,"parameterNumberName":"V-component_of_WINDS"},"data":[0,0,0,0,0,0,0,0,0,0,0,0,0,0,0,0,0,0,0,0,0,0,0,0,0,0,0,0,0,0,0,0,0,0,0,0,0,0,0,0,0,0,0,0,0,0,0,0,0,0,0,0,0,0,0,0,0,0,6.1939,6.1938,0,6.1899,6.1899,6.1898,6.1801,6.1799,6.1797,6.1795,6.1756,6.1757,6.1758,0,0,0,0,0,0,0,0,0,0,0,0,0,6.1932,6.1933,6.1939,6.1938,6.1938,6.1899,6.1899,6.1898,6.1802,6.1799,6.1797,6.1795,6.1756,6.1757,6.1758,0,0,0,0,0,0,0,0,0,0,0,0,0,6.1918,6.1933,6.1939,6.1885,6.188,6.1899,6.1899,6.1898,6.1802,6.1799,6.1796,6.1793,6.1756,6.1757,6.1758,6.1827,0,0,6.1762,6.1763,0,0,0,0,0,0,0,0,6.1919,6.1918,6.1894,6.1889,6.1883,6.1852,6.1882,6.1874,6.1803,6.1832,6.1795,6.1792,6.1791,6.1789,6.1788,6.1826,6.1824,6.1762,6.1763,6.1764,6.1764,0,0,0,0,0,0,0,6.192,6.192,6.1923,6.1893,6.1887,6.1863,6.1858,6.188,6.1829,6.1829,6.1822,6.1819,6.1787,6.1787,6.1787,6.1823,6.1762,6.1763,6.1764,6.1765,6.1914,6.1917,0,0,0,0,0,0,6.1929,6.1921,6.1924,6.1922,6.1894,6.1866,6.186,6.1865,6.1828,6.182,6.1821,6.1814,6.1787,6.1785,6.1785,6.1862,6.1764,6.1765,6.1766,6.191,6.1914,6.1918,0,0,0,0,0,0,6.1929,6.193,6.1926,6.1919,6.1917,6.1869,6.1876,6.1866,6.1866,6.1822,6.1813,6.183,6.1784,6.1783,6.1817,6.1859,6.1765,6.1767,6.1907,6.1912,6.1916,6.2018,0,0,0,0,0,0,6.1929,6.193,6.1956,6.1921,6.1918,6.1959,6.1879,6.1867,6.1868,6.1859,6.1829,6.1821,6.1782,6.1816,6.1818,6.1859,6.1768,6.1903,6.1909,6.1914,6.201,6.2025,6.2038,0,0,0,0,0,6.1929,6.1987,6.1958,6.1959,6.1949,6.1962,6.196,6.1913,6.1872,6.1897,6.1869,6.1822,6.1855,6.182,6.1822,6.1864,6.19,6.1907,6.1914,6.2004,6.2022,6.2038,0,0,0,0,0,0,6.2029,6.1981,6.1949,6.1997,6.1984,6.1945,6.1976,6.1935,6.1934,6.1925,6.1867,6.1862,6.1903,6.1887,6.1849,6.1928,6.1869,6.1877,6.1937,6.1954,6.1968,6.197,6.1769,0,0,0,0,0,6.2057,6.2071,6.2028,6.2075,6.207,6.2024,6.2028,6.1993,6.1978,6.1972,6.1946,6.1934,6.1941,6.1947,6.1951,6.2008,6.1999,6.2038,6.2052,6.2064,6.2071,6.2098,6.2114,6.1941,6.1941,6.1941,0,0,6.2114,6.209,6.2102,6.2094,6.208,6.2096,6.202,6.2041,6.2051,6.1975,6.2005,6.1986,6.1968,6.2013,6.2032,6.2001,6.2117,6.2073,6.2082,6.2083,6.2107,6.2124,6.2138,6.1946,6.1945,6.1944,0,0,6.2226,6.221,6.2246,6.2233,6.2212,6.2181,6.219,6.2158,6.2142,6.2171,6.2113,6.2126,6.214,6.2129,6.2125,6.2233,6.2188,6.2236,6.2308,6.2336,6.2349,6.2361,6.2398,6.2412,6.2243,6.2244,6.2244,0,6.23,6.2321,6.227,6.2293,6.2291,6.2222,6.2258,6.2248,6.2231,6.2231,6.2197,6.2212,6.2195,6.2236,6.2262,6.2262,6.227,6.2238,6.2351,6.2363,6.2373,6.2407,6.2422,6.2249,6.2249,6.2248,6.2248,0,6.2412,6.2428,6.2459,6.2443,6.2444,6.2474,6.2428,6.2436,6.2401,6.2374,6.2404,6.2381,6.2379,6.2386,6.2353,6.2422,6.2403,6.2362,6.2301,6.2396,6.2427,6.244,6.2258,6.2256,6.2254,6.2252,0,0,6.2586,6.254,6.2552,6.2543,6.2515,6.2526,6.2553,6.255,6.2557,6.2548,6.2568,6.2581,6.2541,6.2537,6.2502,6.2526,6.2611,6.2481,6.2479,6.2505,6.2685,6.2716,6.2732,6.2582,6.2585,6.2586,6.2686,0,6.269,6.2731,6.2686,6.2737,6.275,6.2685,6.2708,6.2693,6.2669,6.2676,6.2649,6.2659,6.2606,6.2603,6.2624,6.2596,6.2646,6.2589,6.26,6.2601,6.2605,6.2748,6.2781,6.2876,6.2698,6.27,6.2701,0,6.2817,6.2812,6.2864,6.2831,6.2835,6.2857,6.285,6.2858,6.284,6.282,6.2815,6.2773,6.2796,6.2738,6.2769,6.2731,6.2733,6.272,6.2722,6.272,6.2656,6.2749,6.2906,6.2919,6.2721,6.2719,6.2718,0,6.2936,6.2943,6.2974,6.2969,6.2932,6.2949,6.2934,6.2913,6.2914,6.2908,6.2908,6.2906,6.2904,6.2904,6.2861,6.2823,6.2897,6.2836,6.2881,6.2882,6.2898,6.2898,6.3056,6.2902,6.2902,6.2902,6.2902,0,6.3056,6.3091,6.3027,6.3047,6.3083,6.3031,6.3068,6.3047,6.3029,6.3043,6.2987,6.3002,6.2945,6.2954,6.2921,6.2951,6.2951,6.2935,6.2926,6.294,6.2942,6.2939,6.2931,6.2906,6.2905,6.2904,6.2903,0,6.3196,6.3155,6.3185,6.3147,6.3139,6.3167,6.3135,6.3151,6.3123,6.3141,6.3142,6.3098,6.3105,6.3063,6.3063,6.304,6.3086,6.3066,6.3092,6.3085,6.3132,6.3127,6.3293,6.3311,6.3148,6.3149,6.3151,0,6.3274,6.3299,6.3264,6.3269,6.3257,6.3266,6.3266,6.3216,6.3219,6.3199,6.3218,6.322,6.3219,6.3233,6.3201,6.32,6.3179,6.3237,6.3178,6.3191,6.3178,6.3177,6.3178,6.3249,6.3251,6.3253,6.3254,0,6.3418,6.3396,6.3398,6.3394,6.3395,6.3389,6.338,6.3387,6.3332,6.3338,6.3344,6.3343,6.3342,6.3345,6.3337,6.3322,6.3279,6.3273,6.3283,6.3296,6.331,6.3302,6.3123,6.3269,6.3267,6.3266,6.3266,6.3265,6.3528,6.3547,6.3524,6.3528,6.3516,6.3508,6.3521,6.3493,6.3497,6.3492,6.3462,6.3474,6.3454,6.3439,6.3428,6.3436,6.3408,6.3424,6.3427,6.3431,6.3439,6.331,6.3435,6.3435,6.3434,6.3434,6.3433,0,6.3668,6.365,6.3654,6.3642,6.3645,6.3604,6.359,6.3596,6.3606,6.3592,6.3591,6.3598,6.36,6.3568,6.3565,6.3578,6.3558,6.3579,6.3577,6.3574,6.3465,6.3455,6.3595,6.3595,6.3595,6.3595,6.3595,6.3595,6.3741,6.3769,6.3744,6.3766,6.3748,6.3758,6.3753,6.3746,6.3733,6.3743,6.3744,6.3723,6.3701,6.3696,6.3696,6.3686,6.3688,6.3715,6.3699,6.3597,6.3582,6.3567,6.3558,6.3716,6.3717,6.3807,6.3808,6.3809]}]]